TimeCST,TemperatureF,Dew PointF,Humidity,Sea Level PressureIn,VisibilityMPH,Wind Direction,Wind SpeedMPH,Gust SpeedMPH,PrecipitationIn,Events,Conditions,WindDirDegrees,DateUTC
12:15 AM,30.2,26.6,86,30.31,10.0,Calm,Calm,-,N/A,,Clear,0,2013-02-20 06:15:00
12:35 AM,30.2,26.6,86,30.30,10.0,Calm,Calm,-,N/A,,Unknown,0,2013-02-20 06:35:00
12:55 AM,30.2,24.8,80,30.30,10.0,Calm,Calm,-,N/A,,Clear,0,2013-02-20 06:55:00
1:15 AM,30.2,24.8,80,30.31,10.0,Calm,Calm,-,N/A,,Clear,0,2013-02-20 07:15:00
1:35 AM,28.4,24.8,86,30.31,10.0,Calm,Calm,-,N/A,,Clear,0,2013-02-20 07:35:00
1:55 AM,28.4,23.0,80,30.31,10.0,Calm,Calm,-,N/A,,Clear,0,2013-02-20 07:55:00
2:15 AM,28.4,23.0,80,30.31,10.0,Calm,Calm,-,N/A,,Clear,0,2013-02-20 08:15:00
2:35 AM,28.4,24.8,86,30.31,10.0,Calm,Calm,-,N/A,,Clear,0,2013-02-20 08:35:00
2:55 AM,28.4,24.8,86,30.31,10.0,Calm,Calm,-,N/A,,Clear,0,2013-02-20 08:55:00
3:15 AM,28.4,23.0,80,30.31,10.0,Calm,Calm,-,N/A,,Clear,0,2013-02-20 09:15:00
3:35 AM,28.4,23.0,80,30.30,10.0,Calm,Calm,-,N/A,,Clear,0,2013-02-20 09:35:00
3:55 AM,30.2,26.6,86,30.30,10.0,Calm,Calm,-,N/A,,Clear,0,2013-02-20 09:55:00
4:15 AM,30.2,24.8,80,30.30,10.0,Calm,Calm,-,N/A,,Clear,0,2013-02-20 10:15:00
4:35 AM,28.4,24.8,86,30.30,10.0,Calm,Calm,-,N/A,,Clear,0,2013-02-20 10:35:00
4:55 AM,28.4,23.0,80,30.31,10.0,Calm,Calm,-,N/A,,Clear,0,2013-02-20 10:55:00
5:15 AM,28.4,23.0,80,30.30,10.0,Calm,Calm,-,N/A,,Clear,0,2013-02-20 11:15:00
5:35 AM,30.2,23.0,75,30.30,10.0,Calm,Calm,-,N/A,,Clear,0,2013-02-20 11:35:00
6:15 AM,32.0,23.0,69,30.32,10.0,Calm,Calm,-,N/A,,Clear,0,2013-02-20 12:15:00
6:55 AM,32.0,23.0,69,30.34,10.0,Calm,Calm,-,N/A,,Clear,0,2013-02-20 12:55:00
7:15 AM,32.0,24.8,75,30.35,10.0,Calm,Calm,-,N/A,,Clear,0,2013-02-20 13:15:00
7:35 AM,32.0,26.6,80,30.36,10.0,Calm,Calm,-,N/A,,Clear,0,2013-02-20 13:35:00
7:55 AM,32.0,24.8,75,30.37,10.0,Calm,Calm,-,N/A,,Clear,0,2013-02-20 13:55:00
8:15 AM,32.0,26.6,80,30.36,10.0,Calm,Calm,-,N/A,,Clear,0,2013-02-20 14:15:00
8:35 AM,32.0,23.0,69,30.36,10.0,East,3.5,-,N/A,,Clear,90,2013-02-20 14:35:00
8:55 AM,33.8,17.6,52,30.37,10.0,ENE,3.5,-,N/A,,Clear,60,2013-02-20 14:55:00
9:15 AM,33.8,15.8,48,30.36,10.0,NE,3.5,-,N/A,,Clear,50,2013-02-20 15:15:00
9:35 AM,33.8,15.8,48,30.34,10.0,ENE,4.6,-,N/A,,Clear,70,2013-02-20 15:35:00
9:55 AM,33.8,14.0,44,30.33,10.0,East,4.6,-,N/A,,Clear,80,2013-02-20 15:55:00
10:15 AM,33.8,14.0,44,30.33,10.0,ENE,3.5,-,N/A,,Clear,60,2013-02-20 16:15:00
10:35 AM,33.8,14.0,44,30.34,10.0,East,3.5,-,N/A,,Clear,80,2013-02-20 16:35:00
10:55 AM,33.8,14.0,44,30.34,10.0,East,3.5,-,N/A,,Partly Cloudy,100,2013-02-20 16:55:00
11:15 AM,33.8,14.0,44,30.33,10.0,ENE,3.5,-,N/A,,Clear,60,2013-02-20 17:15:00
11:35 AM,33.8,12.2,41,30.33,10.0,East,3.5,-,N/A,,Mostly Cloudy,80,2013-02-20 17:35:00
11:55 AM,33.8,14.0,44,30.32,10.0,ENE,3.5,-,N/A,,Scattered Clouds,70,2013-02-20 17:55:00
12:15 PM,33.8,12.2,41,30.31,10.0,Calm,Calm,-,N/A,,Mostly Cloudy,0,2013-02-20 18:15:00
12:35 PM,35.6,12.2,38,30.30,10.0,Calm,Calm,-,N/A,,Mostly Cloudy,0,2013-02-20 18:35:00
12:55 PM,35.6,12.2,38,30.28,10.0,Calm,Calm,-,N/A,,Mostly Cloudy,0,2013-02-20 18:55:00
1:15 PM,37.4,12.2,36,30.28,10.0,Calm,Calm,-,N/A,,Scattered Clouds,0,2013-02-20 19:15:00
1:35 PM,37.4,12.2,36,30.27,10.0,East,3.5,-,N/A,,Mostly Cloudy,90,2013-02-20 19:35:00
1:55 PM,37.4,14.0,38,30.26,10.0,SE,6.9,-,N/A,,Mostly Cloudy,140,2013-02-20 19:55:00
2:15 PM,37.4,14.0,38,30.25,10.0,ESE,5.8,-,N/A,,Mostly Cloudy,120,2013-02-20 20:15:00
2:35 PM,37.4,14.0,38,30.24,10.0,SE,5.8,-,N/A,,Mostly Cloudy,130,2013-02-20 20:35:00
2:55 PM,37.4,14.0,38,30.23,10.0,SE,5.8,-,N/A,,Partly Cloudy,130,2013-02-20 20:55:00
3:15 PM,37.4,14.0,38,30.22,10.0,East,6.9,-,N/A,,Partly Cloudy,100,2013-02-20 21:15:00
3:35 PM,37.4,14.0,38,30.22,10.0,ESE,5.8,-,N/A,,Partly Cloudy,120,2013-02-20 21:35:00
3:55 PM,37.4,15.8,41,30.21,10.0,ESE,5.8,-,N/A,,Mostly Cloudy,110,2013-02-20 21:55:00
4:15 PM,37.4,15.8,41,30.22,10.0,ESE,5.8,-,N/A,,Overcast,120,2013-02-20 22:15:00
4:35 PM,37.4,17.6,45,30.23,10.0,ESE,5.8,-,N/A,,Overcast,120,2013-02-20 22:35:00
4:55 PM,37.4,17.6,45,30.22,10.0,ESE,5.8,-,N/A,,Mostly Cloudy,110,2013-02-20 22:55:00
5:15 PM,35.6,21.2,56,30.23,8.0,East,4.6,-,N/A,,Partly Cloudy,100,2013-02-20 23:15:00
5:35 PM,35.6,21.2,56,30.22,10.0,ESE,4.6,-,N/A,,Mostly Cloudy,110,2013-02-20 23:35:00
5:55 PM,35.6,21.2,56,30.22,6.0,East,3.5,-,N/A,,Mostly Cloudy,80,2013-02-20 23:55:00
6:15 PM,35.6,21.2,56,30.21,7.0,East,4.6,-,0.01,,Mostly Cloudy,90,2013-02-21 00:15:00
6:55 PM,33.8,21.2,60,30.21,10.0,East,5.8,-,0.01,,Overcast,100,2013-02-21 00:55:00
7:15 PM,33.8,21.2,60,30.20,10.0,East,5.8,-,N/A,,Overcast,100,2013-02-21 01:15:00
7:35 PM,33.8,19.4,56,30.21,10.0,ESE,4.6,-,N/A,,Overcast,110,2013-02-21 01:35:00
7:55 PM,33.8,19.4,56,30.20,10.0,East,4.6,-,N/A,,Overcast,90,2013-02-21 01:55:00
8:15 PM,33.8,17.6,52,30.20,10.0,Calm,Calm,-,N/A,,Overcast,0,2013-02-21 02:15:00
8:35 PM,33.8,17.6,52,30.20,10.0,NE,3.5,-,N/A,,Mostly Cloudy,40,2013-02-21 02:35:00
8:55 PM,33.8,17.6,52,30.20,10.0,East,4.6,-,N/A,,Light Drizzle,90,2013-02-21 02:55:00
9:15 PM,33.8,19.4,56,30.20,10.0,East,3.5,-,N/A,,Overcast,80,2013-02-21 03:15:00
9:35 PM,33.8,19.4,56,30.22,10.0,East,3.5,-,N/A,,Mostly Cloudy,90,2013-02-21 03:35:00
9:55 PM,33.8,21.2,60,30.20,8.0,ENE,3.5,-,N/A,Rain,Light Rain,70,2013-02-21 03:55:00
10:15 PM,32.0,23.0,69,30.20,9.0,ENE,3.5,-,N/A,,Mostly Cloudy,70,2013-02-21 04:15:00
10:35 PM,32.0,23.0,69,30.19,10.0,East,5.8,-,N/A,,Light Drizzle,90,2013-02-21 04:35:00
10:55 PM,32.0,24.8,75,30.20,10.0,Calm,Calm,-,N/A,,Mostly Cloudy,0,2013-02-21 04:55:00
11:15 PM,32.0,26.6,80,30.19,10.0,ENE,4.6,-,0.01,,Light Drizzle,70,2013-02-21 05:15:00
11:35 PM,32.0,26.6,80,30.19,7.0,Calm,Calm,-,0.01,Rain,Light Rain,0,2013-02-21 05:35:00
11:55 PM,32.0,28.4,87,30.19,9.0,Calm,Calm,-,0.01,Rain,Light Rain,0,2013-02-21 05:55:00